Details From KHAF - HALF MOON BAY
To KSCK - Stockton Metropolitan
Flight Number -
Tags generated
Created
Modified
Stats Distance 64 nm / 119 km
Max Altitude 2,500 ft / 762 m
Waypoints 3
Social Downloads 13
Likes 0
Share VATSIM

Download

Looking for another format? Having issues loading an existing format? Contact us
Advertisement - Login to hide

Notes

Basic altitude profile: - Ascent Rate: 2500ft/min - Ascent Speed: 250kts - Cruise Altitude: 10000ft - Cruise Speed: 380kts - Descent Rate: 2500ft/min - Descent Speed: 250kts Options: - Use NATs: yes - Use PACOTS: yes - Use low airways: yes - Use high airways: no

Route

KHAF BYRON KSCK

ID Type Via Altitude Latitude Longitude Leg Dist Tot Dist Heading (true) Name
O KHAF APT - 0 ft / 0 m 37.51343˚ -122.50116˚ - 0 nm - HALF MOON BAY
BYRON FIX - 2,500 ft / 762 m 37.82286˚ -121.46937˚ 52 nm 52 nm 69° / 70° -
O KSCK APT - 0 ft / 0 m 37.89867˚ -121.23909˚ 11 nm 64 nm 67° / 67° Stockton Metropolitan

Altitude Profile

Advertisement - Login to hide

KHAF

Details ICAO KHAF
Name HALF MOON BAY
Region United States
Timezone America/Los_Angeles (UTC-7.0)
Stats Elevation 66 ft / 20 m (AMSL)
Location 37.513435° -122.501163°
Runways 1
Magnetic Variation 13.418° E

METAR

KHAF 222335Z AUTO 29009KT 2 1/2SM BR OVC004 12/12 A2993 RMK AO2

Decode

TAF

Not found

Departure Runways

ID Width Length Bearing (true) Bearing (mag) Surface Threshold Offset Overrun Length
12 151 ft / 46 m 5,005 ft / 1,525 m 137.06° 123.64° Asphalt 764 ft / 233 m 0 ft / 0 m
30 151 ft / 46 m 5,005 ft / 1,525 m 317.06° 303.64° Asphalt 764 ft / 233 m 0 ft / 0 m

KSCK

Details ICAO KSCK (SCK)
Name Stockton Metropolitan
Region United States
Timezone America/Los_Angeles (UTC-7.0)
Stats Elevation 30 ft / 9 m (AMSL)
Location 37.898670° -121.239089°
Runways 3
Magnetic Variation 13.299° E

METAR

KSCK 222255Z 29012KT 10SM CLR 27/11 A2979 RMK AO2 SLP088 T02720111

Decode

TAF

TAF KSCK 222320Z 2300/2324 29011KT P6SM SCT200

Decode

Destination Runways

ID Width Length Bearing (true) Bearing (mag) Surface Threshold Offset Overrun Length
05 200 ft / 61 m 2,873 ft / 876 m 62.26° 48.96° Grass 0 ft / 0 m 0 ft / 0 m
11L 151 ft / 46 m 10,647 ft / 3,245 m 127.69° 114.39° Asphalt 991 ft / 302 m 200 ft / 61 m
16 200 ft / 61 m 2,741 ft / 835 m 176.99° 163.69° Grass 0 ft / 0 m 0 ft / 0 m
23 200 ft / 61 m 2,873 ft / 876 m 242.26° 228.96° Grass 0 ft / 0 m 0 ft / 0 m
29R 151 ft / 46 m 10,647 ft / 3,245 m 307.71° 294.41° Asphalt 1,001 ft / 305 m 115 ft / 35 m
34 200 ft / 61 m 2,741 ft / 835 m 356.99° 343.69° Grass 0 ft / 0 m 0 ft / 0 m

Approach Navaids

Runway Type Ident Frequency Range Bearing (true) Bearing (mag) Slope Elevation
29R Localiser ISCK 109.10 MHz 18 nm / 33 km 307.69° 294.39° - 24 ft / 7 m (AMSL)
29R Glidescope ISCK 109.10 MHz 10 nm / 19 km 307.70° 294.40° 2.90° 29 ft / 9 m (AMSL)